Hourly Data Report for January 28, 2020

CARBERRY CS
MANITOBA
Current Station Operator: ECCC - MSC

49°54'20.900" N
99°21'26.800" W
383.50 m
5010547
71170
WZE

Download Data

Hourly Data (January 2020)
Hourly Data Report for January 28, 2020
TIME
LST
Temp Definition
°C
Dew Point Definition
°C
Rel Hum Definition
%
Precip. Amount Definition
mm

Wind Dir Definition
10's deg

Wind Spd Definition
km/h
Visibility Definition
km
Stn Press Definition
kPa
Hmdx Definition


Wind Chill Definition


Weather Definition


00:00 -14.5 -16.2 87 0.0 22 3   97.34   -17 LegendNANA
01:00 -13.4 -14.9 88 0.0 20 2   97.35   -15 LegendNANA
02:00 -11.1 -12.2 92 0.0 20 3   97.34   -13 LegendNANA
03:00 -10.5 -11.6 92 0.0 19 4   97.33   -13 LegendNANA
04:00 -10.6 -11.7 92 0.0 19 4   97.30   -13 LegendNANA
05:00 -10.5 -11.6 92 0.0 16 4   97.29   -13 LegendNANA
06:00 -10.5 -11.6 92 0.0 16 2   97.29   -12 LegendNANA
07:00 -10.8 -11.9 91 0.0 12 3   97.27   -13 LegendNANA
08:00 -11.6 -12.8 90 0.0 16 3   97.27   -13 LegendNANA
09:00 -11.8 -13.1 90 0.0 11 3   97.30   -14 LegendNANA
10:00 -12.0 -13.4 89 0.0 10 4   97.30   -15 LegendNANA
11:00 -11.6 -13.0 89 0.0 9 3   97.27   -13 LegendNANA
12:00 -11.1 -12.5 89 0.0 8 3   97.25   -13 LegendNANA
13:00 -10.7 -12.0 90 0.0 10 2   97.23   -12 LegendNANA
14:00 -10.2 -11.4 91 0.0 7 3   97.22   -12 LegendNANA
15:00 -10.4 -11.7 90 0.5 5 4   97.20   -13 LegendNANA
16:00 -9.9 -10.9 92 0.3 7 5   97.19   -13 LegendNANA
17:00 -9.7 -10.6 93 0.0 7 4   97.18   -12 LegendNANA
18:00 -9.8 -10.7 93 0.2 7 4   97.23   -12 LegendNANA
19:00 -10.3 -11.3 92 0.0 9 4   97.29   -13 LegendNANA
20:00 -11.2 -12.4 91 0.0 9 5   97.30   -14 LegendNANA
21:00 -11.3 -12.5 91 0.2 9 5   97.29   -14 LegendNANA
22:00 -11.2 -12.4 91 0.0 8 5   97.32   -14 LegendNANA
23:00 -11.2 -12.4 91 0.0 7 6   97.31   -15 LegendNANA

Notes on Data Quality.

Legend

  • E = Estimated
  • M = Missing
  • NA = Not Available*
  • [empty] = Indicates an unobserved value
Date modified: